• In Germany
  • List of Countries
  • For 7 days
  • Water Temperature
  • Satellite Maps
  • Weather Map
  • Weather Widgets
  • user-avatar
    Login

    Hourly Weather Novosretenka

    Today, 22 July, Sunday

    Time Temperature Precipitation Wind Pressure Humidity
    00:00 +14°C° 0.1 mm 3 mps 693 mmHg 90%
    01:00 +14°C° 0 mm 3 mps 693 mmHg 90%
    02:00 +14°C° 0.1 mm 3 mps 693 mmHg 90%
    03:00 +13°C° 0.1 mm 3 mps 693 mmHg 91%
    04:00 +13°C° 0.1 mm 3 mps 694 mmHg 92%
    05:00 +14°C° 0 mm 3 mps 694 mmHg 87%
    06:00 +16°C° 0 mm 3 mps 694 mmHg 82%
    07:00 +17°C° 0 mm 3 mps 695 mmHg 76%
    08:00 +18°C° 0 mm 3 mps 695 mmHg 68%
    09:00 +19°C° 0 mm 3 mps 695 mmHg 60%
    10:00 +21°C° 0 mm 3 mps 695 mmHg 52%
    11:00 +22°C° 0 mm 3 mps 695 mmHg 47%
    12:00 +24°C° 0 mm 3 mps 695 mmHg 43%
    13:00 +25°C° 0 mm 3 mps 695 mmHg 38%
    14:00 +26°C° 0 mm 3 mps 695 mmHg 37%
    15:00 +26°C° 0 mm 3 mps 695 mmHg 36%
    16:00 +26°C° 0 mm 2 mps 694 mmHg 36%
    17:00 +24°C° 0 mm 2 mps 694 mmHg 43%
    18:00 +23°C° 0 mm 1 mps 694 mmHg 51%
    19:00 +19°C° 0 mm 0 mps 694 mmHg 58%
    20:00 +20°C° 0 mm 1 mps 694 mmHg 60%
    21:00 +18°C° 0 mm 1 mps 694 mmHg 63%
    22:00 +15°C° 0 mm 1 mps 694 mmHg 65%
    23:00 +15°C° 0 mm 1 mps 694 mmHg 68%

    Tomorrow, 23 July, Monday

    Time Temperature Precipitation Wind Pressure Humidity
    00:00 +14°C° 0 mm 1 mps 694 mmHg 70%
    01:00 +14°C° 0 mm 1 mps 694 mmHg 72%
    02:00 +14°C° 0 mm 1 mps 694 mmHg 73%
    03:00 +13°C° 0 mm 1 mps 693 mmHg 75%
    04:00 +13°C° 0 mm 1 mps 693 mmHg 76%
    05:00 +15°C° 0 mm 1 mps 693 mmHg 70%
    06:00 +18°C° 0 mm 1 mps 694 mmHg 64%
    07:00 +20°C° 0 mm 1 mps 694 mmHg 58%
    08:00 +23°C° 0 mm 1 mps 694 mmHg 53%
    09:00 +25°C° 0 mm 1 mps 694 mmHg 48%
    10:00 +27°C° 0 mm 1 mps 694 mmHg 43%
    11:00 +28°C° 0 mm 1 mps 694 mmHg 40%
    12:00 +30°C° 0 mm 1 mps 694 mmHg 37%
    13:00 +31°C° 0 mm 1 mps 693 mmHg 34%
    14:00 +31°C° 0 mm 1 mps 693 mmHg 34%
    15:00 +31°C° 0 mm 1 mps 693 mmHg 34%
    16:00 +31°C° 0 mm 1 mps 692 mmHg 34%
    17:00 +29°C° 0 mm 1 mps 692 mmHg 41%
    18:00 +27°C° 0 mm 1 mps 692 mmHg 48%
    19:00 +25°C° 0 mm 1 mps 692 mmHg 55%
    20:00 +23°C° 0.1 mm 1 mps 692 mmHg 61%
    21:00 +22°C° 0.1 mm 1 mps 692 mmHg 67%
    22:00 +20°C° 0.1 mm 1 mps 692 mmHg 72%
    23:00 +19°C° 0 mm 1 mps 691 mmHg 74%

    Day after tomorrow, 24 July, Tuesday

    Time Temperature Precipitation Wind Pressure Humidity
    00:00 +19°C° 0 mm 1 mps 691 mmHg 76%
    01:00 +18°C° 0 mm 1 mps 691 mmHg 78%
    02:00 +18°C° 0 mm 1 mps 691 mmHg 80%
    03:00 +16°C° 0 mm 1 mps 691 mmHg 82%
    04:00 +16°C° 0 mm 1 mps 691 mmHg 83%
    05:00 +19°C° 0 mm 1 mps 691 mmHg 78%
    06:00 +19°C° 0 mm 0 mps 691 mmHg 72%
    07:00 +21°C° 0 mm 0 mps 692 mmHg 67%
    08:00 +23°C° 0 mm 0 mps 692 mmHg 59%
    09:00 +26°C° 0 mm 0 mps 692 mmHg 51%
    10:00 +28°C° 0 mm 0 mps 692 mmHg 43%
    11:00 +29°C° 0 mm 0 mps 692 mmHg 40%
    12:00 +30°C° 0 mm 0 mps 692 mmHg 36%
    13:00 +31°C° 0 mm 0 mps 691 mmHg 33%
    14:00 +31°C° 0 mm 0 mps 691 mmHg 33%
    15:00 +31°C° 0 mm 0 mps 691 mmHg 33%
    16:00 +31°C° 0 mm 0 mps 690 mmHg 33%
    17:00 +29°C° 0 mm 0 mps 690 mmHg 40%
    18:00 +27°C° 0 mm 0 mps 690 mmHg 47%
    19:00 +25°C° 0 mm 0 mps 690 mmHg 54%
    20:00 +23°C° 0 mm 0 mps 689 mmHg 58%
    21:00 +24°C° 0 mm 1 mps 689 mmHg 61%
    22:00 +22°C° 0 mm 1 mps 689 mmHg 64%
    23:00 +21°C° 0 mm 1 mps 689 mmHg 67%

    25 July, Wednesday

    Time Temperature Precipitation Wind Pressure Humidity
    00:00 +21°C° 0 mm 1 mps 689 mmHg 70%
    01:00 +20°C° 0 mm 1 mps 689 mmHg 73%
    02:00 +20°C° 0 mm 1 mps 689 mmHg 75%
    03:00 +19°C° 0 mm 1 mps 689 mmHg 77%
    04:00 +19°C° 0 mm 1 mps 689 mmHg 79%
    05:00 +21°C° 0 mm 1 mps 689 mmHg 74%
    06:00 +23°C° 0 mm 1 mps 689 mmHg 69%
    07:00 +25°C° 0 mm 1 mps 690 mmHg 64%
    08:00 +27°C° 0 mm 1 mps 690 mmHg 57%
    09:00 +29°C° 0 mm 2 mps 690 mmHg 49%
    10:00 +31°C° 0 mm 2 mps 690 mmHg 42%
    11:00 +32°C° 0 mm 2 mps 689 mmHg 39%
    12:00 +34°C° 0 mm 2 mps 689 mmHg 35%
    13:00 +35°C° 0 mm 2 mps 689 mmHg 31%
    14:00 +35°C° 0 mm 2 mps 689 mmHg 31%
    15:00 +35°C° 0 mm 3 mps 689 mmHg 31%
    16:00 +35°C° 0 mm 3 mps 688 mmHg 30%
    17:00 +32°C° 0 mm 2 mps 688 mmHg 38%
    18:00 +30°C° 0 mm 2 mps 688 mmHg 47%
    19:00 +28°C° 0 mm 1 mps 688 mmHg 55%
    20:00 +26°C° 0 mm 1 mps 687 mmHg 57%
    21:00 +25°C° 0 mm 1 mps 687 mmHg 59%
    22:00 +24°C° 0 mm 2 mps 687 mmHg 61%
    23:00 +23°C° 0 mm 1 mps 687 mmHg 63%

    26 July, Thursday

    Time Temperature Precipitation Wind Pressure Humidity
    00:00 +22°C° 0 mm 1 mps 687 mmHg 65%
    01:00 +22°C° 0 mm 1 mps 687 mmHg 67%
    02:00 +21°C° 0.1 mm 1 mps 688 mmHg 72%
    03:00 +21°C° 0.1 mm 1 mps 688 mmHg 77%
    04:00 +20°C° 0.1 mm 1 mps 688 mmHg 82%
    05:00 +21°C° 0.6 mm 1 mps 688 mmHg 84%
    06:00 +21°C° 0.6 mm 1 mps 688 mmHg 87%
    07:00 +21°C° 0.6 mm 1 mps 689 mmHg 89%
    08:00 +23°C° 0.1 mm 1 mps 689 mmHg 80%
    09:00 +26°C° 0.1 mm 1 mps 689 mmHg 71%
    10:00 +28°C° 0.1 mm 2 mps 690 mmHg 62%
    11:00 +28°C° 0.2 mm 2 mps 690 mmHg 61%
    12:00 +28°C° 0.2 mm 2 mps 690 mmHg 60%
    13:00 +29°C° 0.2 mm 3 mps 689 mmHg 60%
    14:00 +29°C° 0.1 mm 2 mps 690 mmHg 57%
    15:00 +29°C° 0.1 mm 2 mps 690 mmHg 55%
    16:00 +30°C° 0.1 mm 2 mps 690 mmHg 53%
    17:00 +28°C° 0 mm 2 mps 690 mmHg 59%
    18:00 +27°C° 0 mm 2 mps 690 mmHg 65%
    19:00 +25°C° 0 mm 1 mps 690 mmHg 71%
    20:00 +24°C° 0.2 mm 1 mps 690 mmHg 76%
    21:00 +23°C° 0.2 mm 1 mps 690 mmHg 80%
    22:00 +21°C° 0.2 mm 1 mps 690 mmHg 84%
    23:00 +21°C° 0.4 mm 1 mps 690 mmHg 86%

    27 July, Friday

    Time Temperature Precipitation Wind Pressure Humidity
    00:00 +20°C° 0.4 mm 1 mps 691 mmHg 88%
    01:00 +19°C° 0.4 mm 1 mps 691 mmHg 90%
    02:00 +18°C° 0.2 mm 2 mps 691 mmHg 91%
    03:00 +18°C° 0.2 mm 2 mps 691 mmHg 92%
    04:00 +17°C° 0.2 mm 2 mps 692 mmHg 92%
    05:00 +17°C° 1.3 mm 2 mps 693 mmHg 92%
    06:00 +16°C° 1.3 mm 2 mps 693 mmHg 93%
    07:00 +16°C° 1.3 mm 2 mps 694 mmHg 93%
    08:00 +16°C° 0.3 mm 2 mps 695 mmHg 89%
    09:00 +17°C° 0.3 mm 2 mps 695 mmHg 85%
    10:00 +17°C° 0.3 mm 3 mps 696 mmHg 81%
    11:00 +19°C° 0 mm 3 mps 696 mmHg 72%
    12:00 +20°C° 0 mm 3 mps 696 mmHg 63%
    13:00 +22°C° 0 mm 3 mps 696 mmHg 55%
    14:00 +22°C° 0 mm 3 mps 696 mmHg 53%
    15:00 +23°C° 0 mm 2 mps 696 mmHg 52%
    16:00 +23°C° 0 mm 2 mps 696 mmHg 51%
    17:00 +21°C° 0 mm 2 mps 696 mmHg 56%
    18:00 +21°C° 0 mm 1 mps 696 mmHg 62%
    19:00 +20°C° 0 mm 1 mps 695 mmHg 67%
    20:00 +19°C° 0.1 mm 1 mps 695 mmHg 69%
    21:00 +18°C° 0.1 mm 1 mps 695 mmHg 71%
    22:00 +15°C° 0.1 mm 0 mps 695 mmHg 73%
    23:00 +14°C° 0 mm 0 mps 695 mmHg 76%
    Show more